Regional Weather Roundup
Issued by NWS

Home | Current Version | Previous Version | Text Only | Print | Product List | Glossary On
Versions: 1 2 3 4 5 6 7 8 9 10 11 12 13 14 15 16 17 18 19 20 21 22 23 24 25 26 27 28 29 30 31 32 33 34 35 36 37 38 39 40 41 42 43 44 45 46 47 48 49 50
000
ASUS43 KOAX 312010
RWRNE

WEATHER ROUNDUP FOR NEBRASKA
NATIONAL WEATHER SERVICE OMAHA NE
200 PM CST SAT JAN 31 2015

NOTES: SATELLITE DATA IS BEING USED TO AUGMENT CLOUD COVER ABOVE
       12000 FEET.
       "FAIR" INDICATES FEW OR NO CLOUDS BELOW 12,000 FEET WITH NO
       SIGNIFICANT WEATHER AND/OR OBSTRUCTIONS TO VISIBILITY.

  * THESE STATIONS DO NOT REPORT WEATHER SUCH AS RAIN...SNOW OR FOG.

NEZ001>004-019>022-054>056-312100-
NEBRASKA PANHANDLE

CITY           SKY/WX    TMP DP  RH WIND       PRES   REMARKS
SCOTTSBLUFF    LGT SNOW  32  31  96 NW5       29.87F VSB 3/4 WCI  27
ALLIANCE       SNOW      30  29  96 N8        29.86F VSB 1/4 WCI  22
CHADRON        CLOUDY    33  26  75 NE10      29.91F WCI  25
KIMBALL        LGT SNOW  32  32  99 N8        29.81F VSB 1   WCI  25
SIDNEY         LGT SNOW  33  31  92 N9        29.83F FOG     WCI  25
$$

NEZ057>060-069>072-079>082-312100-
SOUTHWEST NEBRASKA

CITY           SKY/WX    TMP DP  RH WIND       PRES   REMARKS
NORTH PLATTE   MIX PCPN  34  32  92 E5        29.87F FOG     WCI  30
IMPERIAL       CLOUDY    34  32  92 N7        29.84F FOG     WCI  28
LEXINGTON      LGT RAIN  34  33  96 SE6       29.89F WCI  29
MCCOOK         FOG       37  35  92 E6        29.84F VSB 1   WCI  32
OGALLALA       DRIZZLE   34  33  98 NE6       29.86F WCI  29
$$

NEZ005>010-023>029-035>040-094-312100-
NORTH CENTRAL NEBRASKA

CITY           SKY/WX    TMP DP  RH WIND       PRES   REMARKS
VALENTINE      FOG       25  23  92 NE13      29.97F VSB 1   WCI  14
AINSWORTH      MIX PCPN  26  25  99 NE14      29.95F VSB 1   WCI  14
BROKEN BOW     CLOUDY    35  32  88 E7        29.88F WCI  29
O`NEILL        CLOUDY    30  30  99 N13       29.98F FOG     WCI  20
ORD            CLOUDY    35  31  85 SE8       29.92F WCI  29
THEDFORD       LGT RAIN  31  31  99 NE13      29.89F WCI  22
$$

NEZ041-046>049-061>064-073>077-083>087-312100-
SOUTH CENTRAL NEBRASKA

CITY           SKY/WX    TMP DP  RH WIND       PRES   REMARKS
GRAND ISLAND   LGT SNOW  32  31  96 SE8       29.95F VSB 3/4 WCI  25
AURORA         LGT SNOW  33  33 100 SE9       29.95F WCI  25
HASTINGS       LGT SNOW  32  30  92 SE9       29.92F FOG     WCI  24
HEBRON         LGT SNOW  33  32  95 SE12      29.96F WCI  24
HOLDREGE       LGT RAIN  32  32  99 SE9       29.88F WCI  24
KEARNEY *      CLOUDY    32  30  93 SE7       29.91F WCI  26
YORK           CLOUDY    32  32 100 S10       29.97F FOG     WCI  24
$$

NEZ011>018-030>034-042>045-312100-
NORTHEAST NEBRASKA

CITY           SKY/WX    TMP DP  RH WIND       PRES   REMARKS
NORFOLK        CLOUDY    37  33  85 S14       29.98F WCI  28
ALBION         CLOUDY    35  30  84 S9        29.97F WCI  27
BLAIR          LGT SNOW  34  33  94 S10       30.02F WCI  26
COLUMBUS *     CLOUDY    36  28  75 S12       30.01F WCI  27
FREMONT        LGT SNOW  35  34  97 SE8       30.02F WCI  28
WAYNE          CLOUDY    36  35  95 S8        30.01F FOG     WCI  30
$$

NEZ050>053-065>068-078-088>093-312100-
SOUTHEAST NEBRASKA

CITY           SKY/WX    TMP DP  RH WIND       PRES   REMARKS
LINCOLN        LGT SNOW  33  32  96 SE12      30.02F FOG     WCI  24
OMAHA EPPLEY   LGT SNOW  33  32  96 S10       30.05F VSB 3/4 WCI  25
BEATRICE       LGT SNOW  33  32  99 SE12      30.00F WCI  24
FALLS CITY     LGT RAIN  33  33 100 SE10      30.07F FOG     WCI  25
NEBRASKA CITY  LGT SNOW  33  33 100 SE10      30.05F VSB 1   WCI  24
PLATTSMOUTH    MIX PCPN  33  32  95 SE12      30.05F WCI  25
$$

NEZ044-045-051>053-067-312100-
OMAHA AREA

CITY           SKY/WX    TMP DP  RH WIND       PRES   REMARKS
OMAHA EPPLEY   LGT SNOW  33  32  96 S10       30.05F VSB 3/4 WCI  25
BLAIR          LGT SNOW  34  33  94 S10       30.02F WCI  26
FREMONT        LGT SNOW  35  34  97 SE8       30.02F WCI  28
MILLARD        LGT SNOW  33  32  95 SE7       30.04F WCI  27
OFFUTT AFB     LGT RAIN  34  33  96 SE10      30.05F FOG     WCI  26
PLATTSMOUTH    MIX PCPN  33  32  95 SE12      30.05F WCI  25
WAHOO          LGT SNOW  33  32  95 SE7       30.02F WCI  27
$$



USA.gov is the U.S. government's official web portal to all federal, state and local government web resources and services.